カタログに戻る

FENGYUN 1C DEB

運用中SSO
NORAD 30225·DEBRIS·🇨🇳 China

打ち上げ May 10, 1999 から Taiyuan Satellite Launch Center

Loading…

次のパス (今後24時間)

TLE

最新Source: Space-Track

元期: Sep 13, 2026, 00:29 UTC

1 30225U 99025WJ  26256.02058840  .00000159  00000-0  98716-4 0  9995
2 30225  98.6370 279.5233 0099645  20.8723  39.6098 14.15350711 14113

AllMySatでFENGYUN 1C DEBをリアルタイム追跡

Download on the App Store